Flag Weather past 2 weeks in Linz, Upper Austria, Austria

Now
43 °F

Fog.


Feels Like: 43 °F
Forecast: 42 / 57 °F
Wind: 1 mph from North

Location: Linz / Hoersching-Flughafen

Current Time: Nov 1, 2014 at 3:32:13 AM

Latest Report: Nov 1, 2014 at 2:50 AM


Visibility: 0 mi

Pressure: 30.30 "Hg

Humidity: 100%

Dew point: 43 °F

Location of LinzLocation

Historic Weather in Linz — Graph

°F

Linz temperature yesterday

Maximum temperature yesterday: 54 °F (at 2:20 PM)
Minimum temperature yesterday: 39 °F (at 11:50 PM)
Average temperature yesterday: 47 °F

Past Weeks' High & Low Weather Summary

 TemperatureHumidityPressure
High66 °F (Oct 20, 4:20 PM)100% (Oct 17, 3:20 AM)30.39 "Hg (Oct 17, 3:20 AM)
Low36 °F (Oct 28, 10:20 PM)66% (Oct 28, 12:20 PM)29.59 "Hg (Oct 21, 10:50 PM)
Average48 °F90%30.15 "Hg
* Reported Oct 17 3:20 AM — Nov 1 2:20 AM, Linz, Weather by CustomWeather, © 2014

Note: Actual official high and low records may vary slightly from our data, if they occured in-between our weather recording intervals... More about our weather records

Advertising

Linz weather history for previous 24 hours

 ConditionsComfort  
Time TempWeatherWind HumidityBarometerVisibility
2:20 AM
Nov 1
43 °FFog.1 mph100%30.33 "Hg0 mi
1:50 AM43 °FFog.2 mph100%30.33 "Hg0 mi
1:20 AM43 °FFog.2 mph100%30.33 "Hg0 mi
12:50 AM41 °FFog.1 mph100%30.33 "Hg0 mi
12:20 AM39 °FDense fog.1 mph100%30.33 "Hg0 mi
11:50 PM
Oct 31
39 °FSleet. Overcast.1 mph100%30.33 "Hg1 mi
11:20 PM41 °FSleet. Overcast.No wind93%30.33 "Hg1 mi
10:50 PM41 °FSleet. Overcast.1 mph100%30.33 "Hg2 mi
10:20 PM43 °FSleet. Overcast.1 mph93%30.33 "Hg2 mi
9:50 PM41 °FFog.1 mph93%30.33 "Hg2 mi
9:20 PM43 °FFog.2 mph93%30.33 "Hg3 mi
8:50 PM43 °FFog.2 mph100%30.33 "Hg2 mi
8:20 PM43 °FFog.1 mph100%30.33 "Hg3 mi
7:50 PM45 °FFog.2 mph93%30.33 "Hg3 mi
7:20 PM46 °FPassing clouds.1 mph93%30.33 "Hg4 mi
6:50 PM46 °FPassing clouds.3 mph93%30.33 "Hg4 mi
6:20 PM46 °FPassing clouds.3 mph87%30.33 "Hg5 mi
5:50 PM48 °FPassing clouds.2 mph87%30.33 "HgN/A
5:20 PM50 °FPassing clouds.3 mph82%30.33 "HgN/A
4:50 PM50 °FPassing clouds.2 mph82%30.33 "HgN/A
4:20 PM50 °FPartly sunny.2 mph82%30.33 "HgN/A
3:50 PM52 °FPartly sunny.3 mph82%30.33 "HgN/A
3:20 PM54 °FScattered clouds.2 mph72%30.33 "HgN/A
2:50 PM54 °FScattered clouds.2 mph77%30.33 "HgN/A
2:20 PM54 °FScattered clouds.3 mph72%30.33 "HgN/A
1:50 PM52 °FPartly sunny.3 mph77%30.33 "HgN/A
1:20 PM52 °FScattered clouds.3 mph77%30.36 "Hg5 mi
12:50 PM50 °FScattered clouds.3 mph88%30.36 "Hg4 mi
12:20 PM50 °FPartly sunny.3 mph88%30.39 "Hg4 mi
11:50 AM48 °FPartly sunny.3 mph87%30.39 "Hg4 mi
11:20 AM48 °FLow clouds.3 mph87%30.39 "Hg4 mi
10:50 AM46 °FFog.5 mph93%30.39 "Hg3 mi
10:20 AM46 °FFog.3 mph93%30.39 "Hg2 mi
9:50 AM46 °FFog.2 mph93%30.36 "Hg2 mi
9:20 AM46 °FFog.2 mph93%30.36 "Hg2 mi
8:50 AM45 °FFog.3 mph93%30.36 "Hg2 mi
8:20 AM45 °FFog.3 mph100%30.36 "Hg2 mi
7:50 AM45 °FFog.3 mph100%30.36 "Hg2 mi
7:20 AM43 °FBroken clouds.3 mph100%30.36 "Hg1 mi
6:50 AM41 °FPartly sunny.3 mph100%30.33 "Hg0 mi
6:20 AM45 °FPassing clouds.1 mph100%30.33 "Hg0 mi
5:50 AM45 °FPassing clouds.2 mph100%30.33 "Hg1 mi
5:20 AM45 °FSleet. Overcast.2 mph100%30.33 "Hg1 mi
4:50 AM45 °FFog.6 mph93%30.33 "Hg2 mi
4:20 AM45 °FFog.7 mph93%30.33 "Hg3 mi
3:50 AM45 °FFog.5 mph93%30.33 "Hg2 mi
3:20 AM46 °FFog.5 mph93%30.33 "Hg2 mi
Weather by CustomWeather, © 2014

See weather overviewHow to use our weather pages